GW0378 Weather Reports


time (UTC)temp
F
wind
direction
speed
knots
gust
knots
rain 1hr
in
rain 24hr
in
rain mn
in
humidity
%
barometer
mb
20260505033900 55 160 5.2 20.0 0.00 0.00 0.00 46 1013.6
20260505033357 55 136 8.7 17.4 0.00 0.00 0.00 46 1013.7
20260505032855 55 90 9.6 18.2 0.00 0.00 0.00 46 1013.5
20260505032351 55 101 15.6 19.1 0.00 0.00 0.00 46 1013.2
20260505031848 55 100 7.0 15.6 0.00 0.00 0.00 46 1013.2
20260505031345 55 97 8.7 16.5 0.00 0.00 0.00 46 1013.1
20260505030843 55 122 4.3 18.2 0.00 0.00 0.00 45 1013.1
20260505030338 55 114 12.2 16.5 0.00 0.00 0.00 45 1012.8
20260505025834 56 113 7.0 20.9 0.00 0.00 0.00 45 1013.0
20260505025332 56 97 12.2 20.0 0.00 0.00 0.00 45 1012.9
20260505024830 56 127 5.2 14.8 0.00 0.00 0.00 45 1013.1
20260505024327 57 114 13.9 13.9 0.00 0.00 0.00 44 1012.9
20260505023824 57 106 5.2 10.4 0.00 0.00 0.00 44 1012.9
20260505023321 57 85 4.3 13.0 0.00 0.00 0.00 45 1012.8
20260505022819 57 158 4.3 7.0 0.00 0.00 0.00 44 1012.7
20260505022315 57 96 7.0 10.4 0.00 0.00 0.00 44 1012.5
20260505021813 58 105 7.8 11.3 0.00 0.00 0.00 43 1012.5
20260505021309 58 51 5.2 17.4 0.00 0.00 0.00 43 1012.4
20260505020804 58 110 7.0 19.1 0.00 0.00 0.00 42 1012.5
20260505020301 58 81 6.1 16.5 0.00 0.00 0.00 42 1012.0
20260505015758 59 76 4.3 8.7 0.00 0.00 0.00 42 1012.1
20260505015255 59 112 5.2 8.7 0.00 0.00 0.00 41 1012.1
20260505014752 59 84 7.8 13.9 0.00 0.00 0.00 41 1012.0
20260505014249 60 82 4.3 15.6 0.00 0.00 0.00 40 1012.3
20260505013745 60 83 5.2 13.0 0.00 0.00 0.00 40 1012.3
20260505013243 60 63 4.3 7.0 0.00 0.00 0.00 40 1011.9
20260505012741 60 94 4.3 12.2 0.00 0.00 0.00 39 1011.8
20260505012238 61 81 3.5 13.9 0.00 0.00 0.00 39 1012.0
20260505011733 61 99 7.0 17.4 0.00 0.00 0.00 38 1011.8
20260505011231 61 105 4.3 6.1 0.00 0.00 0.00 38 1011.8
20260505010726 62 109 9.6 13.0 0.00 0.00 0.00 38 1011.7
20260505010223 62 50 2.6 7.8 0.00 0.00 0.00 39 1011.7
20260505005719 63 22 5.2 7.8 0.00 0.00 0.00 39 1011.8
20260505005216 62 83 8.7 10.4 0.00 0.00 0.00 38 1011.8
20260505004714 61 96 4.3 9.6 0.00 0.00 0.00 40 1011.8
20260505004210 62 56 1.7 5.2 0.00 0.00 0.00 39 1011.9
20260505003707 62 102 4.3 11.3 0.00 0.00 0.00 39 1011.9
20260505003205 62 45 4.3 8.7 0.00 0.00 0.00 39 1011.8
20260505002701 63 46 4.3 10.4 0.00 0.00 0.00 39 1011.9
20260505002159 63 103 2.6 7.8 0.00 0.00 0.00 38 1011.8
20260505001656 64 93 2.6 9.6 0.00 0.00 0.00 39 1011.6
20260505001153 65 59 1.7 7.8 0.00 0.00 0.00 38 1011.7
20260505000650 65 56 1.7 7.8 0.00 0.00 0.00 38 1011.6
20260505000148 66 60 5.2 12.2 0.00 0.00 0.00 38 1011.6
20260504235644 66 29 3.5 7.8 0.00 0.00 0.00 36 1011.6
20260504235141 66 357 1.7 12.2 0.00 0.00 0.00 37 1011.5
20260504234638 66 26 0.9 4.3 0.00 0.00 0.00 38 1011.3
20260504234136 65 52 4.3 8.7 0.00 0.00 0.00 37 1011.4
20260504233631 66 80 1.7 6.1 0.00 0.00 0.00 39 1011.4
20260504233127 65 67 4.3 7.8 0.00 0.00 0.00 38 1011.4
20260504232625 65 81 3.5 8.7 0.00 0.00 0.00 39 1011.6
20260504232122 65 64 4.3 7.0 0.00 0.00 0.00 38 1011.5
20260504231618 65 51 7.0 9.6 0.00 0.00 0.00 37 1011.4
20260504231115 66 45 1.7 7.8 0.00 0.00 0.00 38 1011.5
20260504230611 66 10 2.6 6.1 0.00 0.00 0.00 38 1011.3
20260504230110 66 80 8.7 10.4 0.00 0.00 0.00 37 1011.3
20260504225608 67 41 4.3 10.4 0.00 0.00 0.00 37 1011.4
20260504225104 66 0 1.7 7.0 0.00 0.00 0.00 37 1011.4
20260504224600 66 96 5.2 8.7 0.00 0.00 0.00 36 1011.4
20260504224058 67 8 3.5 10.4 0.00 0.00 0.00 38 1011.4
20260504223555 67 50 6.1 7.8 0.00 0.00 0.00 37 1011.6
20260504223050 66 84 2.6 12.2 0.00 0.00 0.00 37 1011.5
20260504222547 66 102 7.0 7.8 0.00 0.00 0.00 36 1011.5
20260504222044 66 85 3.5 14.8 0.00 0.00 0.00 37 1011.7
20260504221542 67 21 3.5 10.4 0.00 0.00 0.00 37 1011.5
20260504221038 67 109 2.6 8.7 0.00 0.00 0.00 36 1011.5
20260504220535 67 108 6.1 8.7 0.00 0.00 0.00 36 1011.6
20260504220032 67 123 7.0 9.6 0.00 0.00 0.00 36 1011.4
20260504215528 68 346 2.6 7.0 0.00 0.00 0.00 36 1011.4
20260504215026 66 23 4.3 6.1 0.00 0.00 0.00 37 1011.6
20260504214522 67 67 4.3 7.0 0.00 0.00 0.00 36 1011.7
20260504214018 67 35 2.6 8.7 0.00 0.00 0.00 38 1011.8
20260504213515 68 84 2.6 6.1 0.00 0.00 0.00 37 1011.7
20260504213012 67 97 7.0 10.4 0.00 0.00 0.00 36 1011.8
20260504212508 67 60 2.6 11.3 0.00 0.00 0.00 38 1011.6
20260504212005 67 90 1.7 11.3 0.00 0.00 0.00 38 1011.8
20260504211502 66 61 2.6 13.0 0.00 0.00 0.00 38 1011.8
20260504210959 67 43 3.5 7.0 0.00 0.00 0.00 38 1011.8
20260504210456 68 12 1.7 6.1 0.00 0.00 0.00 38 1011.8
20260504205953 68 92 5.2 8.7 0.00 0.00 0.00 35 1011.9
20260504205450 68 64 4.3 4.3 0.00 0.00 0.00 37 1011.8
20260504204949 67 62 9.6 9.6 0.00 0.00 0.00 36 1011.8
20260504204446 66 45 7.0 8.7 0.00 0.00 0.00 38 1011.7
20260504203945 65 76 4.3 19.1 0.00 0.00 0.00 38 1012.3
20260504203443 66 63 3.5 6.1 0.00 0.00 0.00 39 1011.9
20260504202938 66 35 0.9 6.1 0.00 0.00 0.00 38 1012.0
20260504202435 66 70 2.6 8.7 0.00 0.00 0.00 38 1012.3
20260504201932 67 53 3.5 4.3 0.00 0.00 0.00 39 1012.1
20260504201429 67 120 5.2 7.0 0.00 0.00 0.00 38 1012.3
20260504200927 66 123 3.5 13.0 0.00 0.00 0.00 38 1012.1
20260504200423 66 60 4.3 5.2 0.00 0.00 0.00 40 1012.1
20260504195920 64 14 2.6 8.7 0.00 0.00 0.00 38 1012.0
20260504195416 66 52 2.6 6.1 0.00 0.00 0.00 39 1012.1
20260504194913 66 20 0.9 7.0 0.00 0.00 0.00 37 1012.4
20260504194409 66 28 3.5 8.7 0.00 0.00 0.00 38 1012.1
20260504193905 65 98 6.1 13.9 0.00 0.00 0.00 38 1012.1
20260504193402 66 99 3.5 13.0 0.00 0.00 0.00 39 1012.4
20260504192901 65 342 1.7 10.4 0.00 0.00 0.00 40 1012.4
20260504192358 65 37 0.0 7.0 0.00 0.00 0.00 39 1012.1
20260504191856 65 4 3.5 8.7 0.00 0.00 0.00 40 1012.6
20260504191354 65 106 1.7 5.2 0.00 0.00 0.00 42 1012.7
20260504190849 64 82 2.6 7.8 0.00 0.00 0.00 40 1012.5
20260504190345 64 41 7.8 7.8 0.00 0.00 0.00 41 1012.6
20260504185842 65 42 5.2 6.1 0.00 0.00 0.00 39 1012.9
20260504185339 64 109 2.6 9.6 0.00 0.00 0.00 40 1013.0
20260504184835 63 10 2.6 9.6 0.00 0.00 0.00 40 1012.8
20260504184331 63 157 5.2 13.0 0.00 0.00 0.00 40 1012.7
20260504183827 64 82 2.6 11.3 0.00 0.00 0.00 39 1013.1
20260504183325 64 75 2.6 8.7 0.00 0.00 0.00 40 1012.9
20260504182822 63 115 8.7 8.7 0.00 0.00 0.00 39 1013.0
20260504182319 63 87 2.6 13.9 0.00 0.00 0.00 40 1012.9
20260504181816 64 69 7.8 15.6 0.00 0.00 0.00 40 1013.1
20260504181314 62 41 3.5 11.3 0.00 0.00 0.00 40 1013.0
20260504180813 63 62 4.3 8.7 0.00 0.00 0.00 40 1013.0
20260504180311 63 104 8.7 19.1 0.00 0.00 0.00 39 1013.1
20260504175808 62 100 7.8 12.2 0.00 0.00 0.00 41 1013.1
20260504175305 62 53 5.2 19.1 0.00 0.00 0.00 40 1013.1
20260504174803 64 82 4.3 8.7 0.00 0.00 0.00 40 1013.0
20260504174300 62 108 6.1 8.7 0.00 0.00 0.00 41 1013.2
20260504173757 62 82 6.1 13.9 0.00 0.00 0.00 41 1013.2
20260504173254 62 104 4.3 14.8 0.00 0.00 0.00 40 1013.5
20260504172750 61 56 2.6 12.2 0.00 0.00 0.00 41 1013.4
20260504172247 61 62 5.2 13.0 0.00 0.00 0.00 39 1013.4
20260504171743 61 14 6.1 12.2 0.00 0.00 0.00 42 1013.5
20260504171241 60 78 4.3 13.0 0.00 0.00 0.00 41 1013.4
20260504170738 60 84 5.2 12.2 0.00 0.00 0.00 40 1013.7
20260504170235 60 110 5.2 8.7 0.00 0.00 0.00 41 1013.4
20260504160153 57 90 7.8 28.7 0.00 0.00 0.00 43 1013.8
20260504151121 55 111 8.7 15.6 0.00 0.00 0.00 43 1013.9
20260504150618 56 79 13.9 20.9 0.00 0.00 0.00 43 1014.0
20260504150115 55 60 4.3 20.9 0.00 0.00 0.00 43 1013.7
20260504141044 54 136 9.6 21.7 0.00 0.00 0.00 44 1013.4
20260504140540 54 115 11.3 20.0 0.00 0.00 0.00 44 1013.2
20260504130505 53 105 0.9 18.2 0.00 0.00 0.00 46 1012.7
20260504110352 55 113 13.9 20.0 0.00 0.00 0.00 49 1011.8
20260504100309 48 102 4.3 4.3 0.00 0.00 0.00 67 1010.9
20260504081703 51 113 1.7 2.6 0.00 0.00 0.00 64 1010.9
20260504081159 51 145 0.0 1.7 0.00 0.00 0.00 63 1011.1
20260504080655 52 23 0.0 1.7 0.00 0.00 0.00 62 1011.1
20260504080152 52 23 0.0 2.6 0.00 0.00 0.00 62 1010.9
20260504070120 49 106 3.5 4.3 0.00 0.00 0.00 67 1010.8
20260504050508 57 106 4.3 7.0 0.00 0.00 0.00 52 1010.7
20260504050005 58 107 3.5 4.3 0.00 0.00 0.00 50 1010.7
20260504045501 58 118 4.3 5.2 0.00 0.00 0.00 51 1010.5
20260504044957 58 99 1.7 6.1 0.00 0.00 0.00 50 1010.6
20260504044455 57 106 2.6 5.2 0.00 0.00 0.00 54 1010.4
20260504043952 59 121 4.3 5.2 0.00 0.00 0.00 49 1010.6
20260504043449 58 122 8.7 8.7 0.00 0.00 0.00 50 1010.6
20260504042946 58 105 5.2 7.0 0.00 0.00 0.00 52 1010.5
20260504042443 58 106 3.5 6.1 0.00 0.00 0.00 51 1010.4
20260504041940 58 126 2.6 6.1 0.00 0.00 0.00 51 1010.5
20260504041436 59 86 4.3 6.1 0.00 0.00 0.00 49 1010.3
20260504040932 60 69 4.3 7.0 0.00 0.00 0.00 49 1010.4
20260504040430 61 82 4.3 7.0 0.00 0.00 0.00 46 1010.4
20260504035925 61 78 2.6 4.3 0.00 0.00 0.00 46 1010.3
20260504035423 60 113 3.5 4.3 0.00 0.00 0.00 48 1010.1
20260504034919 60 111 4.3 6.1 0.00 0.00 0.00 48 1010.0
20260504034417 60 78 2.6 5.2 0.00 0.00 0.00 48 1010.3